[TLELIST] Archives

 

[TLELIST] Current TLEs

October 21st 2024 PDT

HST 1 20580U 90037B 24295.14668807 .00010940 00000-0 47915-3 0 9999 2 20580 28.4680 219.7512 0002781 333.3413 26.7037 15.20384608696463 ISS (ZARYA) 1 25544U 98067A 24295.34166233 .00021883 00000-0 38776-3 0 9996 2 25544 51.6411 50.5268 0009330 91.7774 319.5733 15.50150813478117 CXO 1 25867U 99040B 24297.43533143 .00000846 00000-0 00000-0 0 9998 2 25867 44.0565 143.4408 8757924 303.1333 359.8995 0.37807118 15049 ...Continue Reading

[TLELIST] Current TLEs

October 20th 2024 PDT

HST 1 20580U 90037B 24293.89948899 .00017336 00000-0 76441-3 0 9993 2 20580 28.4684 228.1409 0002766 319.3748 40.6638 15.20361907696272 ISS (ZARYA) 1 25544U 98067A 24294.37837902 .00022545 00000-0 39975-3 0 9994 2 25544 51.6398 55.2996 0009428 88.4474 343.7900 15.50110631477960 CXO 1 25867U 99040B 24292.14899531 .00000890 00000-0 00000-0 0 9996 2 25867 43.8911 143.9268 8763916 302.7950 0.4259 0.37813126 15024 ...Continue Reading

[TLELIST] Current TLEs

October 19th 2024 PDT

HST 1 20580U 90037B 24292.91484026 .00016342 00000-0 72066-3 0 9997 2 20580 28.4687 234.7642 0002725 308.3897 51.6451 15.20338793695861 ISS (ZARYA) 1 25544U 98067A 24293.34170017 -.00128572 00000-0 -22749-2 0 9996 2 25544 51.6329 60.4502 0009132 85.0249 318.3933 15.50032711477809 CXO 1 25867U 99040B 24292.14899531 .00000890 00000-0 00000-0 0 9996 2 25867 43.8911 143.9268 8763916 302.7950 0.4259 0.37813126 15024 ...Continue Reading

[TLELIST] Current TLEs

October 18th 2024 PDT

HST 1 20580U 90037B 24291.93017749 .00011841 00000-0 52040-3 0 9991 2 20580 28.4688 241.3873 0002685 296.9368 63.0951 15.20311841695713 ISS (ZARYA) 1 25544U 98067A 24292.38232888 -.00009603 00000-0 -16007-3 0 9998 2 25544 51.6391 65.1974 0009419 81.9286 4.5244 15.50003490477651 CXO 1 25867U 99040B 24292.14899531 .00000890 00000-0 00000-0 0 9996 2 25867 43.8911 143.9268 8763916 302.7950 0.4259 0.37813126 15024 ...Continue Reading

[TLELIST] Current TLEs

October 17th 2024 PDT

HST 1 20580U 90037B 24291.20808226 .00012489 00000-0 54962-3 0 9993 2 20580 28.4689 246.2442 0002663 288.0822 71.9481 15.20296089695861 ISS (ZARYA) 1 25544U 98067A 24291.35102956 .00036925 00000-0 65144-3 0 9997 2 25544 51.6380 70.3070 0009287 76.2939 11.7186 15.49981123477492 CXO 1 25867U 99040B 24292.14899531 .00000890 00000-0 00000-0 0 9996 2 25867 43.8911 143.9268 8763916 302.7950 0.4259 0.37813126 15024 ...Continue Reading

[TLELIST] Current TLEs

October 16th 2024 PDT

HST 1 20580U 90037B 24289.96080940 .00012648 00000-0 55716-3 0 9993 2 20580 28.4685 254.6337 0002594 274.1177 85.9119 15.20267027695419 ISS (ZARYA) 1 25544U 98067A 24290.31759140 .00023260 00000-0 41482-3 0 9992 2 25544 51.6386 75.4196 0009361 75.3000 2.5236 15.49927186477331 CXO 1 25867U 99040B 24292.14899531 .00000890 00000-0 00000-0 0 9996 2 25867 43.8911 143.9268 8763916 302.7950 0.4259 0.37813126 15024 ...Continue Reading

[TLELIST] Current TLEs

October 16th 2024 PDT

HST 1 20580U 90037B 24289.96080940 .00012648 00000-0 55716-3 0 9993 2 20580 28.4685 254.6337 0002594 274.1177 85.9119 15.20267027695419 ISS (ZARYA) 1 25544U 98067A 24290.31759140 .00023260 00000-0 41482-3 0 9992 2 25544 51.6386 75.4196 0009361 75.3000 2.5236 15.49927186477331 CXO 1 25867U 99040B 24292.14899531 .00000890 00000-0 00000-0 0 9996 2 25867 43.8911 143.9268 8763916 302.7950 0.4259 0.37813126 15024 ...Continue Reading

[TLELIST] Current TLEs

October 15th 2024 PDT

HST 1 20580U 90037B 24288.64786459 .00010983 00000-0 48319-3 0 9996 2 20580 28.4685 263.4650 0002594 258.6466 101.3836 15.20235984695217 ISS (ZARYA) 1 25544U 98067A 24289.35132757 .00025185 00000-0 44906-3 0 9995 2 25544 51.6391 80.2098 0009495 68.3910 14.4496 15.49883461477182 CXO 1 25867U 99040B 24289.50546092 .00001055 00000-0 00000-0 0 9997 2 25867 43.7893 144.2087 8763523 302.6146 0.5675 0.37807096 15016 ...Continue Reading

[TLELIST] Current TLEs

October 15th 2024 PDT

HST 1 20580U 90037B 24288.64786459 .00010983 00000-0 48319-3 0 9996 2 20580 28.4685 263.4650 0002594 258.6466 101.3836 15.20235984695217 ISS (ZARYA) 1 25544U 98067A 24289.35132757 .00025185 00000-0 44906-3 0 9995 2 25544 51.6391 80.2098 0009495 68.3910 14.4496 15.49883461477182 CXO 1 25867U 99040B 24289.50546092 .00001055 00000-0 00000-0 0 9997 2 25867 43.7893 144.2087 8763523 302.6146 0.5675 0.37807096 15016 ...Continue Reading

[TLELIST] Current TLEs

October 14th 2024 PDT

HST 1 20580U 90037B 24287.66313969 .00013037 00000-0 57541-3 0 9999 2 20580 28.4685 270.0884 0002664 246.4656 113.5658 15.20217340695060 ISS (ZARYA) 1 25544U 98067A 24288.38439782 -.00274092 00000-0 -49859-2 0 9991 2 25544 51.6375 85.0013 0009245 75.5296 8.7941 15.49814641477033 CXO 1 25867U 99040B 24289.50546092 .00001055 00000-0 00000-0 0 9997 2 25867 43.7893 144.2087 8763523 302.6146 0.5675 0.37807096 15016 ...Continue Reading
  • This mailing list is a public mailing list - anyone may join or leave, at any time.
  • This mailing list is announce-only.

International Space Station (ISS) / Hubble Space Telescope (HST) / Chandra X-Ray Observatory Orbital Data via EMAIL

Privacy Policy:

Private list